Tracking 28091 objects as of 30-Sep-2023
HD Live streaming from Space Station
objects crossing your sky now

STARLINK-5049

Track STARLINK-5049 now!
10-day predictions
STARLINK-5049 is classified as:


NORAD ID: 57246
Int'l Code: 2023-094AE
Perigee: 565.3 km
Apogee: 567.4 km
Inclination: 43.0 °
Period: 95.8 minutes
Semi major axis: 6937 km
RCS: Unknown
Launch date: July 7, 2023
Source: United States (US)
Launch site: AIR FORCE WESTERN TEST RANGE (AFWTR)
Your satellite tracking list
Your tracking list is empty




NASA's NSSDC Master Catalog

Two Line Element Set (TLE):
1 57246U 23094AE  23273.25001157  .00027253  00000-0  20264-2 0  9995
2 57246  43.0004 181.1920 0001491 280.5661  88.0857 15.02503423  5930
Source of the keplerian elements: AFSPC